FW1218 Weather Reports


time (UTC)temp
F
wind
direction
speed
knots
gust
knots
rain 1hr
in
rain 24hr
in
rain mn
in
humidity
%
barometer
mb
20260505151525 74 257 4.3 15.6 0.00 0.00 0.00 50 1009.7
20260505124558 66 223 3.5 11.3 0.00 0.00 0.00 60 1010.8
20260505123056 65 271 2.6 7.0 0.00 0.00 0.00 64 1010.8
20260505121612 64 274 6.1 11.3 0.00 0.00 0.00 63 1010.7
20260505120051 64 271 3.5 10.4 0.00 0.00 0.00 64 1010.5
20260505114548 63 279 3.5 7.0 0.00 0.00 0.00 65 1010.3
20260505113046 62 259 4.3 8.7 0.00 0.00 0.00 65 1010.1
20260505111546 61 262 1.7 5.2 0.00 0.00 0.00 68 1009.9
20260505101546 60 272 4.3 11.3 0.00 0.00 0.00 68 1009.5
20260505100037 60 271 4.3 8.7 0.00 0.00 0.00 68 1009.3
20260505094537 60 215 4.3 8.7 0.00 0.00 0.00 68 1009.2
20260505093040 61 256 2.6 8.7 0.00 0.00 0.00 68 1009.3
20260505091531 61 264 2.6 7.8 0.00 0.00 0.00 67 1009.2
20260505090033 61 302 3.5 6.1 0.00 0.00 0.00 66 1009.1
20260505084527 62 249 3.5 7.8 0.00 0.00 0.00 65 1009.1
20260505083028 63 268 4.3 7.8 0.00 0.00 0.00 64 1009.0
20260505081529 63 307 4.3 12.2 0.00 0.00 0.00 62 1008.9
20260505080022 63 248 5.2 9.6 0.00 0.00 0.00 62 1008.9
20260505074521 63 273 4.3 12.2 0.00 0.00 0.00 62 1009.0
20260505073019 63 275 5.2 10.4 0.00 0.00 0.00 63 1008.9
20260505071518 63 283 2.6 9.6 0.00 0.00 0.00 64 1008.7
20260505070016 62 259 0.9 4.3 0.00 0.00 0.00 64 1008.8
20260505064514 63 277 2.6 6.1 0.00 0.00 0.00 63 1009.0
20260505063014 62 260 1.7 7.8 0.00 0.00 0.00 63 1009.1
20260505061511 62 243 0.9 4.3 0.00 0.00 0.00 63 1009.2
20260505060023 62 250 1.7 6.1 0.00 0.00 0.00 63 1009.2
20260505054512 62 247 0.9 2.6 0.00 0.00 0.00 63 1009.3
20260505053005 64 242 0.9 6.1 0.00 0.00 0.00 60 1009.2
20260505051504 64 169 4.3 7.0 0.00 0.00 0.00 60 1009.1
20260505041558 64 266 4.3 11.3 0.00 0.00 0.00 57 1009.1
20260505040056 64 259 4.3 11.3 0.00 0.00 0.00 56 1009.1
20260505034555 64 158 3.5 11.3 0.00 0.00 0.00 56 1009.0
20260505033112 64 273 3.5 11.3 0.00 0.00 0.00 55 1009.0
20260505031555 64 323 5.2 10.4 0.00 0.00 0.00 55 1009.0
20260505030053 64 219 3.5 7.8 0.00 0.00 0.00 55 1008.8
20260505024557 65 276 4.3 8.7 0.00 0.00 0.00 54 1009.1
20260505023104 64 286 5.2 9.6 0.00 0.00 0.00 55 1009.1
20260505021552 63 300 3.5 7.8 0.00 0.00 0.00 55 1009.0
20260505020053 63 243 2.6 7.0 0.00 0.00 0.00 55 1009.0
20260505014551 63 209 0.0 3.5 0.00 0.00 0.00 55 1008.9
20260505013051 64 262 0.0 3.5 0.00 0.00 0.00 55 1009.1
20260505011558 64 264 0.9 7.0 0.00 0.00 0.00 54 1009.1
20260505010049 64 244 0.0 2.6 0.00 0.00 0.00 54 1008.7
20260505004551 64 278 0.0 5.2 0.00 0.00 0.00 53 1008.6
20260505003048 65 287 0.0 5.2 0.00 0.00 0.00 53 1008.5
20260505001548 66 291 0.0 3.5 0.00 0.00 0.00 52 1008.5
20260505000048 67 163 0.0 3.5 0.00 0.00 0.00 50 1008.4
20260504234611 69 222 0.0 4.3 0.00 0.00 0.00 47 1008.3
20260504233050 70 281 2.6 7.0 0.00 0.00 0.00 45 1008.2
20260504231553 71 269 0.9 6.1 0.00 0.00 0.00 44 1008.2
20260504230043 71 264 1.7 5.2 0.00 0.00 0.00 44 1008.4
20260504224542 72 262 2.6 8.7 0.00 0.00 0.00 42 1008.4
20260504223041 72 260 2.6 10.4 0.00 0.00 0.00 44 1008.5
20260504221542 72 279 2.6 9.6 0.00 0.00 0.00 42 1008.5
20260504220039 73 209 0.9 9.6 0.00 0.00 0.00 43 1008.5
20260504214541 72 237 3.5 13.0 0.00 0.00 0.00 41 1008.7
20260504213038 72 250 5.2 11.3 0.00 0.00 0.00 41 1008.6
20260504211539 73 283 4.3 12.2 0.00 0.00 0.00 41 1008.5
20260504210035 73 273 3.5 8.7 0.00 0.00 0.00 41 1008.5
20260504204612 72 230 2.6 10.4 0.00 0.00 0.00 42 1008.6
20260504203034 72 272 1.7 8.7 0.00 0.00 0.00 41 1008.7
20260504201528 72 250 1.7 13.0 0.00 0.00 0.00 42 1008.9
20260504200033 71 304 4.3 15.6 0.00 0.00 0.00 43 1009.2
20260504194524 71 283 6.1 13.9 0.00 0.00 0.00 42 1009.4
20260504193024 70 266 4.3 13.9 0.00 0.00 0.00 41 1009.6
20260504191519 71 279 3.5 12.2 0.00 0.00 0.00 44 1009.9
20260504190016 70 293 5.2 13.0 0.00 0.00 0.00 43 1010.1
20260504184513 71 205 4.3 13.9 0.00 0.00 0.00 42 1010.3
20260504183011 70 266 4.3 11.3 0.00 0.00 0.00 43 1010.6
20260504181510 69 243 5.2 11.3 0.00 0.00 0.00 45 1010.7
20260504180006 68 270 4.3 14.8 0.00 0.00 0.00 41 1010.9
20260504174503 68 280 4.3 9.6 0.00 0.00 0.00 44 1011.0
20260504173002 67 262 6.1 11.3 0.00 0.00 0.00 44 1011.1
20260504171559 66 249 3.5 13.9 0.00 0.00 0.00 43 1011.3